DECAYED

ZQ-2 R/B, 58556 (Decayed)

Orbit data source: Space-Track

ZQ-2 R/B, 58556 was space debris in LEO originally from a launch on Fri, 08 Dec 2023 UTC launched from the Jiuquan Satellite Launch Center, China (JSC). Debris objects in space refer to the collection of defunct objects orbiting the Earth. Examples of debris include non-operational satellites, rocket bodies, and fragments generated from explosions, collisions, or faulty payload assembly.

Loading next visibility...
Identifier
58556, 2023-193D
Orbit
Decayed
Country
Flag of CNCN / PRC
Related business
Flag of CNLandspace (CN)
Manufacturer
Lanjian Hangtian
Mission
Decayed spacecraft
Bus & Motor
ZQ-2 ST 2, Unknown motor
Mass
~5,000 kg wet, ~5,000 kg dry
Launch date (UTC)
2023-12-08 (3 years ago)
Launch vehicle
Unknown
Launch site
Jiuquan Satellite Launch Center, China (JSC)
Object type
Payload
Rocket body
Debris
Shape & HBR
Cyl, 2.9 m
Radar Cross Section
32.883 m², Large (>1 m²)

Expand to show TLE details & history
Last TLE update: 1 year ago

TLE from 1 year ago
0 ZQ-2 R/B
1 58556U 23193D   25033.22823895  .13754771  24818-5  24476-3 0  9998
2 58556  97.2212  58.1933 0007595 267.0586 161.2014 16.47442894 65659
Epoch: 2025-02-02T05:28Z
TLE epoch observation values (Epoch: 2025-02-02T05:28:39.845Z)
Latitude
67.26532°
Longitude
-174.13424°
Altitude
162.45 km
Speed
7.812 km/s
True Right ascension
02h 42m 47s
True Declination
67° 07' 52"
Sunlit
Object was in full shadow at epoch
Visualization orbit readout
Latitude
Unknown
Longitude
Unknown
Altitude
Unknown
Speed
Unknown
Apparent Right ascension
Unknown
Apparent Declination
Unknown
Sunlit
N/A
Visualization observer readout
Local Sidereal Time
21:44:00
Azimuth
Unknown
Elevation
Unknown
Doppler factor
Unknown
Orbital elements
Apogee altitude
147.821 km
Perigee altitude
137.915 km
Semi-major axis
6,521.005 km
Eccentricity
0.00076
Inclination
97.2212°
RAAN
58.1933°
Arg. of periapsis
267.0586°
True anomaly
161.22942°
Mean anomaly
161.2014°
Eccentric anomaly
161.21541°
Mean motion
4.12165 °/min
Orbital period
87.34 mins
BSTAR
0.00024476
Loading maneuver chart data...
Computing Atmospheric mass density...
Loading historical data...
Loading historical data...
Loading historical data...
Loading historical data...
Loading historical data...
Loading historical data...
Loading historical data...
Other satellites on launch #193 in the year 2023 (2023-12-08 UTC)

Documentation

Showing up to 5 results
|